This is the latest recevied weather packets stored in our database for station/object N5LSN. If no packets are shown the sender has not sent any weather packets the latest 10 day(s).
| Time | Temp. | Humidity | Pressure | Rain* | Wind** | Luminosity | Snow |
|---|---|---|---|---|---|---|---|
| 1777770263 | 17.78° C | 50% | 1018.5 hPa | 0 mm | - | 1 W/m² | - |
| 1777769960 | 17.78° C | 48% | 1018.6 hPa | 0 mm | - | 2 W/m² | - |
| 1777769653 | 18.33° C | 46% | 1018.3 hPa | 0 mm | - | 4 W/m² | - |
| 1777769349 | 18.89° C | 46% | 1018.5 hPa | 0 mm | - | 7 W/m² | - |
| 1777769046 | 18.89° C | 45% | 1018.4 hPa | 0 mm | - | 10 W/m² | - |
| 1777768744 | 19.44° C | 45% | 1018.6 hPa | 0 mm | - | 13 W/m² | - |
| 1777768440 | 20° C | 42% | 1018.4 hPa | 0 mm | - | 17 W/m² | - |
| 1777768137 | 20.56° C | 42% | 1018.4 hPa | 0 mm | - | 20 W/m² | - |
| 1777767835 | 21.11° C | 43% | 1018.2 hPa | 0 mm | - | 25 W/m² | - |
| 1777767531 | 21.11° C | 40% | 1018.3 hPa | 0 mm | - | 29 W/m² | - |
| 1777767227 | 21.11° C | 40% | 1018.2 hPa | 0 mm | - | 33 W/m² | - |
| 1777766925 | 21.67° C | 41% | 1018.2 hPa | 0 mm | - | 39 W/m² | - |
| 1777766622 | 22.22° C | 41% | 1018.2 hPa | 0 mm | - | 50 W/m² | - |
| 1777766319 | 22.22° C | 40% | 1018.2 hPa | 0 mm | - | 60 W/m² | - |
| 1777766016 | 21.67° C | 39% | 1018.2 hPa | 0 mm | - | 70 W/m² | - |
| 1777765713 | 21.67° C | 39% | 1018.2 hPa | 0 mm | - | 71 W/m² | - |
| 1777765410 | 22.22° C | 38% | 1018 hPa | 0 mm | - | 89 W/m² | - |
| 1777765107 | 21.67° C | 39% | 1018.1 hPa | 0 mm | - | 53 W/m² | - |
| 1777764803 | 21.67° C | 38% | 1018 hPa | 0 mm | - | 88 W/m² | - |
| 1777764500 | 21.67° C | 40% | 1017.9 hPa | 0 mm | - | 49 W/m² | - |
| 1777764196 | 21.67° C | 40% | 1017.9 hPa | 0 mm | - | 53 W/m² | - |
| 1777763893 | 21.67° C | 37% | 1017.8 hPa | 0 mm | - | 73 W/m² | - |
| 1777763591 | 21.67° C | 38% | 1018.1 hPa | 0 mm | - | 101 W/m² | - |
| 1777763289 | 22.22° C | 40% | 1018.1 hPa | 0 mm | - | 66 W/m² | - |
| 1777762986 | 22.22° C | 40% | 1017.9 hPa | 0 mm | - | 82 W/m² | - |
* Rain latest hour (hover to see other rain measurements)
** Current wind speed in m/s (hover to see current wind gust speed)